[[{"header":{"parameterUnit":"m.s-1","parameterCategory":1,"la1":30.2991,"la2":30.254,"lo1":-89.0895,"lo2":-89.0444,"dy":0.0017,"dx":0.0017,"nx":28,"ny":28,"refTime":"2025-08-15T21:00:00:Z","depth":0,"parameterNumber":2,"parameterNumberName":"U-component_of_WINDS"},"data":[0,0,0,0,0,0,0,0,0,0,0,0,0,0,0,0,0,0,0,0,0,0,0,0,0,0,0,0,0,0,0,0,0,0,0,0,0,0,0,0,0,0,0,0,0,0,0,0,0,0,0,0,0,0,0,0,0,0,2.1038,2.1037,0,2.094,2.0939,2.0938,2.0769,2.0765,2.0762,2.0759,2.0661,2.0662,2.0662,0,0,0,0,0,0,0,0,0,0,0,0,0,2.1083,2.1083,2.1038,2.1037,2.1035,2.094,2.0939,2.0938,2.0769,2.0765,2.0761,2.0758,2.0661,2.0662,2.0662,0,0,0,0,0,0,0,0,0,0,0,0,0,2.1032,2.1083,2.1038,2.094,2.093,2.0941,2.0939,2.0937,2.077,2.0765,2.076,2.0756,2.0661,2.0662,2.0662,2.0761,0,0,2.0664,2.0664,0,0,0,0,0,0,0,0,2.1036,2.1031,2.0955,2.0947,2.0936,2.0861,2.0919,2.0878,2.0771,2.0831,2.0759,2.0753,2.0732,2.0726,2.0719,2.0757,2.0753,2.0664,2.0664,2.0665,2.0665,0,0,0,0,0,0,0,2.1039,2.1034,2.0999,2.0955,2.0942,2.0902,2.089,2.091,2.081,2.0825,2.0813,2.0803,2.0726,2.0719,2.0715,2.0751,2.0664,2.0664,2.0665,2.0665,2.087,2.0875,0,0,0,0,0,0,2.1057,2.1038,2.1002,2.0996,2.0975,2.0905,2.0891,2.089,2.0809,2.0792,2.0808,2.0796,2.072,2.0715,2.0711,2.0823,2.0664,2.0665,2.0665,2.0865,2.0871,2.0877,0,0,0,0,0,0,2.1058,2.1055,2.1006,2.1014,2.1004,2.0909,2.091,2.0891,2.0883,2.0795,2.0777,2.0818,2.0716,2.071,2.0751,2.0818,2.0665,2.0666,2.0859,2.0867,2.0874,2.1049,0,0,0,0,0,0,2.106,2.1057,2.1092,2.1016,2.1005,2.1046,2.0914,2.0892,2.0884,2.0868,2.0801,2.0785,2.0712,2.0751,2.0751,2.0816,2.0666,2.0852,2.0862,2.0871,2.1037,2.1062,2.1083,0,0,0,0,0,2.1063,2.1145,2.1094,2.1091,2.1047,2.105,2.1044,2.0958,2.0891,2.0926,2.0871,2.0787,2.0811,2.0757,2.0756,2.0821,2.0848,2.086,2.0871,2.1026,2.1057,2.1082,0,0,0,0,0,0,2.123,2.1133,2.1076,2.1135,2.1103,2.1022,2.1063,2.0992,2.0978,2.0963,2.0858,2.0844,2.0899,2.0864,2.0805,2.0915,2.0817,2.0829,2.0935,2.0963,2.0986,2.0993,2.0667,0,0,0,0,0,2.1275,2.1285,2.1199,2.126,2.1247,2.1159,2.1157,2.1094,2.1056,2.1041,2.0988,2.0955,2.0956,2.0958,2.0953,2.1032,2.1016,2.1077,2.11,2.112,2.1131,2.1173,2.12,2.0914,2.0914,2.0914,0,0,2.1365,2.1313,2.1326,2.1293,2.126,2.1275,2.1148,2.1168,2.1179,2.1044,2.1079,2.1041,2.0997,2.1058,2.1082,2.1031,2.1207,2.1134,2.115,2.1151,2.1188,2.1215,2.1239,2.0922,2.0921,2.0919,0,0,2.1538,2.1499,2.1547,2.1518,2.147,2.1411,2.1424,2.1355,2.1323,2.1357,2.1258,2.127,2.1272,2.1246,2.1233,2.1403,2.1326,2.1404,2.1525,2.1567,2.159,2.1609,2.1671,2.1694,2.1416,2.1417,2.1417,0,2.1657,2.1673,2.1581,2.1608,2.1598,2.1478,2.1527,2.1504,2.1458,2.1454,2.1397,2.14,2.1362,2.1417,2.1459,2.1452,2.1464,2.141,2.1594,2.1612,2.1629,2.1687,2.1711,2.1426,2.1425,2.1424,2.1423,0,2.1823,2.1837,2.1882,2.1841,2.1836,2.1874,2.1789,2.1796,2.1735,2.1684,2.1722,2.1674,2.1658,2.1667,2.1607,2.1715,2.1684,2.1613,2.1511,2.1668,2.1721,2.1742,2.144,2.1437,2.1434,2.1432,0,0,2.2095,2.2005,2.2023,2.2005,2.1946,2.1956,2.1991,2.1976,2.1985,2.1959,2.1986,2.1993,2.1927,2.1913,2.185,2.1888,2.2028,2.1811,2.1808,2.1854,2.2147,2.2201,2.2228,2.1978,2.1982,2.1985,2.2151,0,2.2255,2.2308,2.2228,2.23,2.2313,2.2203,2.2233,2.2202,2.2157,2.2163,2.2113,2.212,2.2032,2.2023,2.2056,2.2004,2.2085,2.1991,2.2004,2.2006,2.2018,2.2255,2.2312,2.247,2.2171,2.2174,2.2176,0,2.2447,2.2432,2.2506,2.2446,2.2449,2.2478,2.246,2.2467,2.2431,2.2395,2.2383,2.2308,2.2341,2.2245,2.2289,2.2227,2.2229,2.2205,2.2209,2.2206,2.21,2.2259,2.2518,2.2543,2.2208,2.2205,2.2203,0,2.264,2.2638,2.2682,2.267,2.2601,2.2624,2.2597,2.2556,2.2554,2.2539,2.2537,2.2527,2.2522,2.2517,2.2443,2.2379,2.2498,2.2395,2.2471,2.2473,2.2499,2.2499,2.2763,2.2502,2.2501,2.2501,2.25,0,2.2827,2.2877,2.2768,2.2795,2.2849,2.2759,2.2815,2.2776,2.2742,2.2762,2.2666,2.2687,2.2589,2.26,2.2543,2.259,2.2588,2.2562,2.2546,2.257,2.2574,2.2569,2.2556,2.2507,2.2506,2.2504,2.2503,0,2.3049,2.2978,2.302,2.2953,2.2937,2.298,2.2923,2.2947,2.2898,2.2924,2.2925,2.2848,2.2856,2.2783,2.2777,2.2739,2.2814,2.2779,2.2826,2.2815,2.2896,2.289,2.3165,2.3198,2.2917,2.2919,2.2922,0,2.3172,2.3208,2.3146,2.3153,2.3131,2.3142,2.314,2.3054,2.3056,2.3021,2.305,2.3051,2.3047,2.3067,2.3011,2.3007,2.2972,2.3069,2.297,2.2995,2.2974,2.2973,2.2977,2.3089,2.3093,2.3096,2.3098,0,2.34,2.3364,2.3364,2.3354,2.3355,2.3342,2.3324,2.3335,2.3242,2.325,2.3258,2.3256,2.3252,2.3255,2.3241,2.3215,2.3143,2.313,2.3147,2.3172,2.3198,2.3186,2.2882,2.3123,2.3121,2.3119,2.3118,2.3117,2.3576,2.3604,2.3566,2.3571,2.3549,2.3535,2.3555,2.3509,2.3514,2.3504,2.3454,2.3472,2.3439,2.3414,2.3395,2.3409,2.3362,2.3387,2.3394,2.3401,2.3416,2.3197,2.3406,2.3406,2.3405,2.3404,2.3403,0,2.3799,2.377,2.3776,2.3754,2.3759,2.3691,2.3668,2.3677,2.3694,2.367,2.3669,2.3681,2.3685,2.3631,2.3629,2.3651,2.3618,2.3653,2.365,2.3646,2.3458,2.3443,2.368,2.368,2.368,2.368,2.368,2.368,2.3915,2.396,2.3921,2.3955,2.3926,2.3943,2.3936,2.3924,2.3905,2.3922,2.3925,2.389,2.3855,2.385,2.3852,2.3836,2.384,2.3887,2.3861,2.3686,2.3659,2.3633,2.3619,2.3889,2.3889,2.4047,2.4049,2.405]},{"header":{"parameterUnit":"m.s-1","parameterCategory":1,"la1":30.2991,"la2":30.254,"lo1":-89.0895,"lo2":-89.0444,"dy":0.0017,"dx":0.0017,"nx":28,"ny":28,"refTime":"2025-08-15T21:00:00:Z","depth":0,"parameterNumber":3,"parameterNumberName":"V-component_of_WINDS"},"data":[0,0,0,0,0,0,0,0,0,0,0,0,0,0,0,0,0,0,0,0,0,0,0,0,0,0,0,0,0,0,0,0,0,0,0,0,0,0,0,0,0,0,0,0,0,0,0,0,0,0,0,0,0,0,0,0,0,0,-0.0539,-0.0538,0,-0.0431,-0.043,-0.0428,-0.0402,-0.0402,-0.0403,-0.0404,-0.029,-0.0286,-0.0283,0,0,0,0,0,0,0,0,0,0,0,0,0,-0.0718,-0.0715,-0.0539,-0.0538,-0.0536,-0.0431,-0.043,-0.0428,-0.0402,-0.0402,-0.0403,-0.0404,-0.0291,-0.0287,-0.0282,0,0,0,0,0,0,0,0,0,0,0,0,0,-0.0628,-0.0714,-0.0539,-0.0511,-0.0507,-0.0431,-0.0429,-0.0428,-0.0401,-0.0403,-0.0404,-0.0405,-0.0293,-0.0287,-0.0282,-0.0226,0,0,-0.0265,-0.0262,0,0,0,0,0,0,0,0,-0.0634,-0.0622,-0.0516,-0.0512,-0.0508,-0.0431,-0.0451,-0.036,-0.0401,-0.0441,-0.0404,-0.0405,-0.0336,-0.0327,-0.0304,-0.0221,-0.0216,-0.0264,-0.0261,-0.0258,-0.0257,0,0,0,0,0,0,0,-0.064,-0.0626,-0.0496,-0.0515,-0.051,-0.0502,-0.049,-0.0434,-0.0384,-0.0438,-0.0436,-0.0424,-0.0334,-0.0309,-0.0301,-0.0214,-0.0264,-0.0259,-0.0256,-0.0254,-0.0077,-0.0076,0,0,0,0,0,0,-0.0652,-0.0632,-0.05,-0.0493,-0.0575,-0.0498,-0.0485,-0.0455,-0.0384,-0.0375,-0.0423,-0.0423,-0.0318,-0.0308,-0.0297,-0.0226,-0.0258,-0.0253,-0.025,-0.0079,-0.0077,-0.0076,0,0,0,0,0,0,-0.0656,-0.064,-0.0504,-0.0562,-0.0544,-0.0493,-0.046,-0.0452,-0.0428,-0.0373,-0.0363,-0.0407,-0.0319,-0.0305,-0.0244,-0.0221,-0.0251,-0.0246,-0.008,-0.0078,-0.0076,-0.0084,0,0,0,0,0,0,-0.0661,-0.0642,-0.0621,-0.0561,-0.0541,-0.0454,-0.0459,-0.0449,-0.0418,-0.0417,-0.0356,-0.0347,-0.0318,-0.0252,-0.0238,-0.0214,-0.0241,-0.0082,-0.0079,-0.0077,-0.0085,-0.0082,-0.008,0,0,0,0,0,-0.0667,-0.0627,-0.062,-0.0604,-0.0514,-0.0453,-0.0441,-0.041,-0.0417,-0.0395,-0.0359,-0.0349,-0.0226,-0.0246,-0.023,-0.0204,-0.0083,-0.008,-0.0077,-0.0087,-0.0083,-0.008,0,0,0,0,0,0,-0.0685,-0.0619,-0.061,-0.055,-0.0507,-0.0448,-0.042,-0.0407,-0.0361,-0.0361,-0.0324,-0.0311,-0.0251,-0.0222,-0.0245,-0.0146,-0.0155,-0.0148,-0.0167,-0.0163,-0.0161,-0.0169,-0.0237,0,0,0,0,0,-0.0682,-0.0639,-0.0583,-0.0535,-0.0514,-0.0471,-0.0443,-0.0423,-0.0376,-0.0358,-0.0318,-0.0272,-0.0223,-0.0192,-0.0144,-0.0081,-0.0066,-0.0055,-0.0053,-0.0051,-0.0045,-0.0008,-0.0002,-0.0065,-0.0065,-0.0066,0,0,-0.0675,-0.0634,-0.0609,-0.0537,-0.0502,-0.0456,-0.0455,-0.0408,-0.0373,-0.035,-0.029,-0.0259,-0.0205,-0.0143,-0.0113,-0.0116,-0.0024,-0.0047,-0.0045,-0.0041,-0.0004,0.0002,0.0007,-0.0063,-0.0064,-0.0064,0,0,-0.0639,-0.0604,-0.056,-0.0524,-0.047,-0.0441,-0.0431,-0.0373,-0.0352,-0.0291,-0.0272,-0.023,-0.0147,-0.0109,-0.0079,-0.0027,-0.0015,-0.0012,0.0003,0.0038,0.0043,0.0048,0.0068,0.0074,-0.0007,-0.0007,-0.0007,0,-0.0637,-0.0569,-0.0538,-0.0491,-0.0459,-0.0437,-0.0391,-0.0357,-0.029,-0.0268,-0.0273,-0.0167,-0.0129,-0.0057,-0.0044,-0.0021,-0.0006,-0.0019,0.004,0.0045,0.005,0.0069,0.0076,-0.0007,-0.0007,-0.0007,-0.0007,0,-0.0569,-0.0521,-0.0492,-0.0428,-0.0393,-0.0347,-0.0307,-0.0275,-0.0258,-0.0228,-0.0165,-0.0119,-0.0061,-0.0042,-0.0025,0.0034,0.003,0.0032,0.0024,0.0055,0.0074,0.0082,-0.0007,-0.0007,-0.0007,-0.0007,0,0,-0.0541,-0.0461,-0.045,-0.042,-0.0359,-0.0321,-0.0272,-0.0216,-0.0189,-0.0143,-0.01,-0.003,-0.0027,0.0008,0.003,0.0061,0.0101,0.006,0.0062,0.0067,0.017,0.0168,0.0176,0.0109,0.0111,0.0112,0.0166,0,-0.0497,-0.0411,-0.0381,-0.0309,-0.0264,-0.0242,-0.0199,-0.0156,-0.0126,-0.0082,-0.0049,0.0,-0.0,0.0021,0.0052,0.0089,0.0122,0.0086,0.0151,0.0153,0.0137,0.0186,0.0184,0.0232,0.0173,0.0174,0.0175,0,-0.0434,-0.0388,-0.0312,-0.0254,-0.0234,-0.0197,-0.0142,-0.0101,-0.005,-0.0031,0.0008,0.0028,0.0081,0.007,0.0145,0.0119,0.0148,0.017,0.0173,0.018,0.0166,0.0196,0.0248,0.0256,0.0187,0.0186,0.0185,0,-0.042,-0.0339,-0.0282,-0.0258,-0.019,-0.0163,-0.0134,-0.0084,-0.0052,-0.0003,0.0018,0.0073,0.0103,0.0145,0.018,0.0168,0.0252,0.0243,0.0271,0.027,0.0288,0.0287,0.0347,0.0305,0.0305,0.0305,0.0305,0,-0.0374,-0.0328,-0.0275,-0.024,-0.0188,-0.0153,-0.0101,-0.0069,-0.0026,0.0017,0.004,0.008,0.0123,0.0169,0.0197,0.0255,0.0269,0.0287,0.0294,0.0285,0.0283,0.0305,0.0303,0.0307,0.0307,0.0306,0.0306,0,-0.035,-0.0313,-0.0249,-0.019,-0.0174,-0.0137,-0.0086,-0.005,-0.0019,0.0034,0.0049,0.0098,0.0153,0.0192,0.0263,0.0282,0.0346,0.0352,0.0328,0.0332,0.0358,0.0356,0.0435,0.0448,0.0397,0.0397,0.0398,0,-0.0322,-0.0286,-0.0223,-0.0193,-0.0163,-0.0116,-0.0082,-0.0046,-0.0012,0.0049,0.0078,0.0134,0.0182,0.0269,0.0312,0.0367,0.0375,0.04,0.0384,0.0375,0.0377,0.0375,0.0379,0.0402,0.0402,0.0403,0.0403,0,-0.0276,-0.0259,-0.0213,-0.0159,-0.012,-0.0076,-0.0032,-0.0009,0.0036,0.0073,0.013,0.0166,0.0239,0.0296,0.0355,0.0388,0.0404,0.0408,0.0417,0.0409,0.0394,0.0404,0.0336,0.0406,0.0405,0.0405,0.0405,0.0405,-0.0248,-0.0215,-0.0165,-0.0113,-0.0076,-0.0035,0.0002,0.0038,0.0085,0.0147,0.0166,0.0225,0.0276,0.0357,0.0391,0.0438,0.0437,0.045,0.0454,0.0457,0.0457,0.0386,0.0449,0.0449,0.0449,0.0449,0.0449,0,-0.0201,-0.0167,-0.012,-0.0059,-0.0017,-0.0007,0.0043,0.0077,0.0128,0.0174,0.0221,0.0287,0.0342,0.0389,0.0447,0.0476,0.0485,0.049,0.0489,0.0496,0.0455,0.0441,0.0482,0.0482,0.0482,0.0482,0.0482,0.0482,-0.0171,-0.0113,-0.009,-0.0013,0.0021,0.0078,0.0106,0.0145,0.0182,0.0254,0.03,0.033,0.0377,0.0439,0.0491,0.0503,0.0524,0.0528,0.0542,0.0503,0.0499,0.0495,0.0483,0.0532,0.0532,0.058,0.058,0.0581]}]]